Location: Proctor
(47.8934°N, 114.3048°W)
Time: 10:56:03
(UTC+00:00)

Transit 4A - Pass Details

Date: 01 July 2024
Orbit: 870 x 973 km, 66.8° (Epoch: 13 July)

Event Time Altitude Azimuth Distance (km) Brightness Sun altitude
Rises 04:26:49 0° 218° (SW) 3,455 10.8 -6.7°
Reaches altitude 10° 04:29:18 10° 221° (SW) 2,515 10.1 -7.0°
Maximum altitude 04:35:06 75° 306° (NW) 906 8.1 -7.7°
Drops below altitude 10° 04:40:57 10° 32° (NNE) 2,535 10.4 -8.3°
Sets 04:43:28 0° 35° (NE) 3,485 11.1 -8.6°
